Change the Weather History Date:

Thursday, April 12, 2012

  Actual Average Record
Temperature  
Mean Temperature 51 °F 38 °F  
Max Temperature 62 °F 49 °F 76 °F (1960)
Min Temperature 40 °F 27 °F -5 °F (1957)
Degree Days  
Heating Degree Days 14 27  
Month to date heating degree days 271 343  
Since 1 July heating degree days 6589 7218  
Cooling Degree Days 0 0  
Month to date cooling degree days 0 0  
Year to date cooling degree days 0 0  
Moisture  
Dew Point 32 °F    
Average Humidity 60    
Maximum Humidity 100    
Minimum Humidity 20    
Precipitation  
Precipitation T in 0.07 in 0.67 in (1977)
Month to date precipitation 0.04 0.67  
Year to date precipitation 0.50 2.54  
Sea Level Pressure  
Sea Level Pressure 29.65 in    
Wind  
Wind Speed 8 mph (SW)    
Max Wind Speed 22 mph    
Max Gust Speed 35 mph    
Visibility 7 miles    
Events Fog , Rain    
T = Trace of Precipitation, MM = Missing Value Source: NWS Daily Summary

Daily Weather History Graph

Daily Weather History Graph

Search for Another Location

Airport or City:

Trip Planner

Search our weather history database for the weather conditions in past years. The results will help you decide how hot, cold, wet, or windy it might be!

Date:

Astronomy

Apr. 12, 2012 Rise Set
Actual Time 6:15 AM MDT 7:35 PM MDT
Civil Twilight 5:46 AM MDT 8:04 PM MDT
Nautical Twilight 5:10 AM MDT 8:40 PM MDT
Astronomical Twilight 4:32 AM MDT 9:18 PM MDT
Moon 1:30 AM MDT (4/12) 11:07 AM MDT (4/12)
Length of Visible Light 14h 18m
Length of Day
13h 19m
Waning Gibbous, 58% of the Moon is Illuminated
Apr 12
Waning Gibbous
Apr 13
Last Quarter
Apr 21
New
Apr 29
First Quarter
May 5
Full

Hourly Weather History & Observations

Time (MDT) Temp. Windchill Dew Point Humidity Pressure Visibility Wind Dir Wind Speed Gust Speed Precip Events Conditions
12:53 AM 41.0 °F 36.4 °F 35.1 °F 79% 29.78 in 10.0 mi Variable 6.9 mph - N/A   Overcast
1:51 AM 39.2 °F 34.2 °F 35.6 °F 87% 29.80 in 10.0 mi South 6.9 mph - N/A   Overcast
1:53 AM 39.9 °F 34.5 °F 35.1 °F 83% 29.73 in 10.0 mi South 8.1 mph - N/A   Overcast
2:53 AM 39.9 °F 33.9 °F 36.0 °F 86% 29.69 in 10.0 mi South 9.2 mph 16.1 mph N/A   Overcast
3:53 AM 39.9 °F 36.7 °F 37.9 °F 93% 29.67 in 8.0 mi Variable 4.6 mph - 0.00 in   Overcast
4:21 AM 39.2 °F 37.0 °F 39.2 °F 100% 29.75 in 6.0 mi Variable 3.5 mph - 0.00 in   Overcast
4:53 AM 41.0 °F 38.0 °F 39.9 °F 96% 29.64 in 2.0 mi Variable 4.6 mph - 0.00 in Rain Light Rain
4:56 AM 41.0 °F 37.1 °F 39.2 °F 93% 29.73 in 1.8 mi SSW 5.8 mph - 0.00 in Rain Light Rain
5:11 AM 41.0 °F - 39.2 °F 93% 29.72 in 0.8 mi Calm Calm - 0.00 in   Mist
5:37 AM 41.0 °F 37.1 °F 39.2 °F 93% 29.72 in 0.2 mi Variable 5.8 mph - 0.00 in Fog Fog
5:53 AM 41.0 °F 37.1 °F 39.9 °F 96% 29.67 in 0.2 mi WSW 5.8 mph - 0.00 in Fog Fog
6:53 AM 41.0 °F 37.1 °F 41.0 °F 100% 29.69 in 0.2 mi SSW 5.8 mph - N/A Fog Fog
7:09 AM 42.8 °F 38.6 °F 41.0 °F 93% 29.74 in 0.2 mi SSW 6.9 mph - N/A Fog Fog
7:34 AM 42.8 °F 40.1 °F 42.8 °F 100% 29.72 in 1.0 mi Variable 4.6 mph - N/A   Mist
7:46 AM 42.8 °F 38.6 °F 42.8 °F 100% 29.73 in 2.5 mi SW 6.9 mph - N/A   Overcast
7:53 AM 43.0 °F 38.8 °F 42.1 °F 97% 29.68 in 2.5 mi SW 6.9 mph - N/A   Overcast
8:01 AM 42.8 °F 39.3 °F 42.8 °F 100% 29.73 in 3.0 mi SW 5.8 mph - N/A   Overcast
8:53 AM 45.0 °F 40.1 °F 42.1 °F 90% 29.66 in 10.0 mi WSW 9.2 mph - N/A   Scattered Clouds
9:53 AM 54.0 °F - 30.0 °F 40% 29.62 in 10.0 mi WSW 12.7 mph 24.2 mph N/A   Clear
10:53 AM 55.0 °F - 27.0 °F 34% 29.61 in 10.0 mi SW 18.4 mph 28.8 mph N/A   Clear
11:53 AM 57.9 °F - 21.9 °F 25% 29.58 in 10.0 mi SW 13.8 mph 27.6 mph N/A   Clear
12:53 PM 57.9 °F - 19.9 °F 23% 29.58 in 10.0 mi SSW 13.8 mph 24.2 mph N/A   Mostly Cloudy
1:53 PM 57.9 °F - 21.0 °F 24% 29.58 in 10.0 mi WSW 15.0 mph 27.6 mph N/A   Mostly Cloudy
2:53 PM 62.1 °F - 21.0 °F 21% 29.54 in 10.0 mi West 13.8 mph 23.0 mph N/A   Mostly Cloudy
3:53 PM 57.9 °F - 19.9 °F 23% 29.56 in 10.0 mi WSW 13.8 mph 24.2 mph N/A   Scattered Clouds
4:53 PM 55.0 °F - 17.1 °F 23% 29.58 in 10.0 mi WSW 10.4 mph 26.5 mph N/A   Overcast
5:53 PM 57.0 °F - 18.0 °F 22% 29.55 in 10.0 mi WSW 8.1 mph 19.6 mph N/A   Clear
6:53 PM 54.0 °F - 19.0 °F 25% 29.56 in 10.0 mi Calm Calm - N/A   Clear
7:53 PM 48.9 °F - 19.9 °F 32% 29.57 in 10.0 mi Calm Calm - N/A   Overcast
8:53 PM 46.9 °F - 19.0 °F 33% 29.59 in 10.0 mi Calm Calm - N/A   Mostly Cloudy
9:53 PM 46.0 °F - 24.1 °F 42% 29.58 in 10.0 mi Calm Calm - N/A   Mostly Cloudy
10:53 PM 43.0 °F 41.3 °F 24.1 °F 47% 29.59 in 10.0 mi South 3.5 mph - N/A   Overcast
11:53 PM 44.1 °F - 28.0 °F 53% 29.56 in 10.0 mi Calm Calm - N/A   Overcast